TimeEDT,TemperatureF,Dew PointF,Humidity,Sea Level PressureIn,VisibilityMPH,Wind Direction,Wind SpeedMPH,Gust SpeedMPH,PrecipitationIn,Events,Conditions,WindDirDegrees,DateUTC
12:53 AM,75.0,62.1,64,30.00,10.0,Calm,Calm,-,0.00,Rain,Light Rain,0,2013-06-16 04:53:00
1:53 AM,73.9,63.0,68,30.01,10.0,SSW,3.5,-,0.00,,Clear,210,2013-06-16 05:53:00
2:53 AM,75.0,63.0,66,30.00,10.0,SSW,3.5,-,N/A,,Partly Cloudy,210,2013-06-16 06:53:00
3:53 AM,73.9,63.0,68,29.99,10.0,Calm,Calm,-,N/A,,Partly Cloudy,0,2013-06-16 07:53:00
4:53 AM,73.9,63.0,68,29.98,10.0,West,3.5,-,N/A,,Clear,260,2013-06-16 08:53:00
5:53 AM,73.0,63.0,71,29.99,10.0,WSW,5.8,-,N/A,,Clear,250,2013-06-16 09:53:00
6:53 AM,73.0,64.0,73,30.01,10.0,SW,3.5,-,N/A,,Clear,230,2013-06-16 10:53:00
7:53 AM,73.0,64.9,76,30.03,10.0,Calm,Calm,-,0.00,Rain,Light Rain,0,2013-06-16 11:53:00
8:53 AM,72.0,66.9,84,30.05,10.0,Calm,Calm,-,0.04,Rain,Light Rain,0,2013-06-16 12:53:00
9:53 AM,73.0,66.9,81,30.05,10.0,Calm,Calm,-,0.00,Rain,Light Rain,0,2013-06-16 13:53:00
10:53 AM,75.9,66.9,74,30.03,10.0,Calm,Calm,-,0.00,,Clear,0,2013-06-16 14:53:00
11:53 AM,80.1,64.9,60,30.02,10.0,SSE,4.6,-,N/A,,Scattered Clouds,160,2013-06-16 15:53:00
12:53 PM,81.0,66.9,62,30.01,10.0,Variable,3.5,-,N/A,,Scattered Clouds,0,2013-06-16 16:53:00
1:53 PM,82.0,66.9,60,30.00,10.0,SSW,4.6,-,N/A,,Mostly Cloudy,200,2013-06-16 17:53:00
2:53 PM,82.0,66.9,60,29.99,10.0,SSW,6.9,-,N/A,,Mostly Cloudy,210,2013-06-16 18:53:00
3:53 PM,84.9,66.9,55,29.97,10.0,WSW,12.7,-,N/A,,Scattered Clouds,240,2013-06-16 19:53:00
4:53 PM,80.1,69.1,69,29.97,10.0,NNW,6.9,-,N/A,,Partly Cloudy,340,2013-06-16 20:53:00
5:53 PM,70.0,64.0,81,30.00,6.0,WNW,9.2,27.6,0.05,Rain-Thunderstorm,Thunderstorms and Rain,300,2013-06-16 21:53:00
6:35 PM,69.8,66.2,88,29.99,10.0,SSE,4.6,-,0.05,Rain,Light Rain,150,2013-06-16 22:35:00
6:53 PM,70.0,66.9,90,29.98,10.0,South,5.8,-,0.05,,Clear,180,2013-06-16 22:53:00
7:53 PM,72.0,66.0,81,29.98,10.0,Calm,Calm,-,N/A,,Clear,0,2013-06-16 23:53:00
8:53 PM,71.1,66.9,87,29.98,10.0,South,4.6,-,N/A,,Clear,170,2013-06-17 00:53:00
9:53 PM,70.0,66.0,87,29.98,10.0,Calm,Calm,-,N/A,,Clear,0,2013-06-17 01:53:00
10:53 PM,69.1,66.0,90,29.99,10.0,Calm,Calm,-,N/A,,Clear,0,2013-06-17 02:53:00
11:53 PM,69.1,66.0,90,29.98,9.0,Calm,Calm,-,N/A,,Clear,0,2013-06-17 03:53:00